431P/Scotti (2022)

Japanese version
Home page
Updated on March 27, 2022

---------------------------------------------------------------------

* Profile

Designation 431P/2021 P5
Recovery Date August 2, 2021
Magnitude 20.3 mag
Recoverer F. Kugel (Dauban, Banon, France)

* Pictures

* Orbital Elements

Epoch 2022 Jan. 21.0 TT = JDT 2459600.5
T 2022 Feb. 13.36347 TT                                 Rudenko
q   1.8136792            (2000.0)            P               Q
n   0.15229687     Peri.  199.85499     +0.74484517     -0.65063879
a   3.4727650      Node   202.84603     +0.65202430     +0.75681957
e   0.4777420      Incl.   22.39178     +0.14166853     -0.06239629
P   6.47
From 454 observations 2002 Nov. 16-2022 Jan. 28, mean residual 0".7.

* Magnitudes Graph

        m1 = 10.2 + 5 log d + 22.0 log r(t - 70)

---------------------------------------------------------------------

The orbital elements are published on M.P.E.C. 2022-C56.
The magnitudes graphs are made with Comet for Windows.

---------------------------------------------------------------------

Copyright(C) Seiichi Yoshida (comet@aerith.net). All rights reserved.